STARLINK-1597 (46142 NORAD) Tracking and Keplerian Element Data

This shows tracking and keplerian element data for the satellite.

Feedback or suggestion? Click here.




ElementValue
Catalog46142
NameSTARLINK-1597
Epoch Orbit184
Epoch Day332.91668981
Epoch Year2020
RAAN330.7935
Inclination52.9855
Eccentricity0.0001429
Argument of Perigee72.713
Mean Anonmoly271.5674
Mean Motion15.05557271
Decay Rate0.00035908
L11 46142U 20057AB 20332.91668981 .00035908 00000-0 24726-2 0 9997
L22 46142 52.9855 330.7935 0001429 72.7130 271.5674 15.05557271 1842

Live tracking and technical data element details for STARLINK-1597 (NORAD 46142). STARLINK-1597 can be tracked NOW for your location showing map with azimuth and elevation plus other details from your city location.

Track the satellite on the map from your city or location and see movement details for azimuth, elevation, latitude, longitude, range, height, and movement on the map or in text.







IsCatalogInMostPopularTable: catalog: 46142, numindb: 16
Update: records affected: 1



GetName: 46142 STARLINK-1597

Hit Count: updated at: Sun, 29 Nov 2020 10:14:17 GMT